Regional Weather Roundup
Issued by NWS

Home | Current Version | Previous Version | Text Only | Print | Product List | Glossary On
Versions: 1 2 3 4 5 6 7 8 9 10 11 12 13 14 15 16 17 18 19 20 21 22 23 24 25 26 27 28 29 30 31 32 33 34 35 36 37 38 39 40 41 42 43 44 45 46 47 48 49 50
335
ASUS43 KDTX 201410
RWRMI
MICHIGAN HOURLY REGIONAL WEATHER ROUNDUP
NATIONAL WEATHER SERVICE DETROIT/PONTIAC MI
900 AM EST SAT JAN 20 2018

NOTE: "FAIR" INDICATES FEW OR NO CLOUDS BELOW 12,000 FEET WITH NO
SIGNIFICANT WEATHER AND/OR OBSTRUCTION TO VISIBILITY.

MIZ047>049-052>055-059>063-066>070-074>076-081>083-201500-
SOUTHEAST LOWER MICHIGAN

CITY           SKY/WX    TMP DP  RH WIND       PRES   REMARKS
ADRIAN         FAIR      31  24  75 W7        29.92R WCI  24
ALMA           FAIR      33  30  87 SW5       29.85R WCI  29
ANN ARBOR      FAIR      30  24  78 S7        29.90R WCI  23
BAD AXE        FAIR      34  29  80 SW7       29.83R WCI  28
CARO           FAIR      32  27  81 SW6       29.84R WCI  27
DETROIT CITY   FAIR      34  25  69 SW14      29.90R WCI  25
DETROIT        MOCLDY    34  25  69 SW12      29.91R WCI  25
FLINT          FAIR      32  25  75 SW8       29.87R WCI  25
GROSSE ILE     FAIR      34  25  71 SW9       29.91R WCI  26
HILLSDALE      FAIR      32  27  80 SW9       29.89R WCI  24
HOWELL         FAIR      33  27  78 SW8       29.87R WCI  26

CITY           SKY/WX    TMP DP  RH WIND       PRES   REMARKS
JACKSON        FAIR      32  25  75 SW15      29.89R WCI  22
LAMBERTVILLE   FAIR      33  25  70 SW10G18   29.93R WCI  25
LANSING        FAIR      34  27  75 SW9       29.88R WCI  27
LAPEER         FAIR      34  26  71 W8        29.85R WCI  27
MONROE         FAIR      32  24  71 SW13      29.92R WCI  23
MT. CLEMENS    CLOUDY    35  24  62 SW12      29.86R WCI  27
PONTIAC        CLOUDY    33  26  75 SW9       29.86R WCI  25
PORT HOPE        N/A     37  29  72 W9G18     29.80R WCI  30
PORT HURON     FAIR      34  25  69 SW3       29.87R
TRI CITIES     FAIR      34  29  82 SW10      29.84R WCI  26
MIDLAND        FAIR      35  29  81 SW7       29.83R WCI  29
TROY           FAIR      33  25  73 SW7       29.90R WCI  27
SAGINAW HB     FAIR      32  28  86 SW9       29.84R WCI  24
$$
MIZ043>046-050>051-056>058-064>065-071>073-077>080-201500-
SOUTHWEST LOWER MICHIGAN

CITY           SKY/WX    TMP DP  RH WIND       PRES   REMARKS
BATTLE CREEK   FAIR      32  25  75 SW13      29.89R WCI  22
BENTON HARBOR  FAIR      33  25  72 S8        29.90R WCI  26
BIG RAPIDS     FAIR      34  28  78 SW8       29.81R WCI  28
COLDWATER      FAIR      31  26  81 SW8       29.91R WCI  24
FREMONT        FAIR      33  28  84 SW5       29.84R WCI  28
HOLLAND        FAIR      36  31  82 SW12      29.87R WCI  28
GRAND RAPIDS   MOCLDY    35  29  78 SW12      29.86R WCI  27
IONIA          FAIR      34  29  80 SW10      29.85R WCI  26
KALAMAZOO      FAIR      31  25  78 SW8       29.90R WCI  23
LUDINGTON      FAIR      35  33  91 SW6       29.83R WCI  30
MARSHALL       FAIR      31  25  77 SW7       29.89R WCI  24
MOUNT PLEASANT FAIR      35  29  78 SW6       29.82R WCI  30
MUSKEGON       MOCLDY    36  31  82 SW8       29.86R WCI  30
SOUTH HAVEN    FAIR      37  29  75 SW10      29.89R WCI  29
$$
MIZ016>042-201500-
NORTHERN LOWER MICHIGAN

CITY           SKY/WX    TMP DP  RH WIND       PRES   REMARKS
ALPENA         FAIR      34  29  82 SW5       29.77R WCI  30
BEAVER ISLAND  FAIR      33  31  92 W8        29.76R WCI  26
BELLAIRE       FAIR      27  27 100 CALM      29.79R FOG
CADILLAC       FAIR      31  30  95 SW5       29.78R WCI  26
CHARLEVOIX     FAIR      34  32  92 SW3       29.81R
FRANKFORT      FAIR      32  32 100 CALM      29.81R FOG
GAYLORD        FAIR      30  29  96 W3        29.75R
GRAYLING       FAIR      31  27  87 SW3       29.79R
HARBOR SPRINGS FAIR      34  31  90 CALM      29.77R
HOUGHTON LAKE  FAIR      32  27  81 SW6       29.79R WCI  26
MANISTEE       FAIR      29  27  92 CALM      29.82R FOG
OSCODA         FAIR      29  24  82 SW7       29.79R WCI  21
PELLSTON       FAIR      34  29  82 W8        29.76R WCI  27
ROGERS CITY    FAIR      36  30  79 W7        29.76R WCI  30
TRAVERSE CITY  CLOUDY    34  30  85 CALM      29.78R
$$
MIZ007>008-015-201500-
EASTERN UPPER MICHIGAN

CITY           SKY/WX    TMP DP  RH WIND       PRES   REMARKS
KINROSS        CLOUDY    36  31  82 W9        29.73R WCI  29
MACKINAC ISLAN FAIR      31  28  88 W8        29.74R WCI  24
NEWBERRY       CLOUDY    33  33  96 W7        29.73R WCI  27
S. S. MARIE    CLOUDY    37  32  82 W7        29.71R WCI  32
MUNISING         N/A     38  31  76 NW3       29.76R
$$
MIZ004>006-011>014-085-201500-
CENTRAL UPPER MICHIGAN

CITY           SKY/WX    TMP DP  RH WIND       PRES   REMARKS
MANISTIQUE     CLOUDY    30  28  93 W6        29.75R WCI  24
ESCANABA       FAIR      22  19  89 NW3       29.79R
MENOMINEE      FAIR      25  24  96 CALM      29.81R
SAWYER-GWINN   PTCLDY    32  27  80 NW3       29.74R
$$
MIZ001>003-009>011-084-201500-
WESTERN UPPER MICHIGAN

CITY           SKY/WX    TMP DP  RH WIND       PRES   REMARKS
IRON MOUNTAIN  FAIR      21  18  88 CALM      29.75R FOG
HOUGHTON       FAIR      35  28  75 W14       29.70R WCI  26
COPPER HARBOR    N/A     39  28  64 NW10G22   29.71R WCI  32
IRONWOOD       FAIR      27  26  96 W3        29.79R
$$

ABBREVIATIONS USED IN REMARKS
   TC - TEMPERATURE IN CELSIUS
  WCI - WIND CHILL INDEX
   HX - HEAT INDEX
  VSB - VISIBILITY





USA.gov is the U.S. government's official web portal to all federal, state and local government web resources and services.